| time (UTC) | temp C | wind direction | speed KPH | gust KPH | rain 1hr cm | rain 24hr cm | rain mn cm | humidity % | barometer mb |
| 20260506002520 | 26 | 150 | 9.7 | 20.9 | 0.00 | 0.00 | 0.00 | 81 | 991.4 |
| 20260506002019 | 26 | 146 | 8.0 | 25.7 | 0.00 | 0.00 | 0.00 | 81 | 990.9 |
| 20260506001518 | 27 | 156 | 12.9 | 25.7 | 0.00 | 0.00 | 0.00 | 80 | 990.9 |
| 20260506001017 | 27 | 161 | 12.9 | 20.9 | 0.00 | 0.00 | 0.00 | 80 | 990.3 |
| 20260506000516 | 27 | 156 | 9.7 | 20.9 | 0.00 | 0.00 | 0.00 | 80 | 989.9 |
| 20260506000015 | 27 | 163 | 9.7 | 20.9 | 0.00 | 0.00 | 0.00 | 80 | 989.8 |
| 20260505235514 | 27 | 174 | 8.0 | 20.9 | 0.00 | 0.00 | 0.00 | 79 | 989.7 |
| 20260505235013 | 27 | 163 | 8.0 | 20.9 | 0.00 | 0.00 | 0.00 | 80 | 989.9 |
| 20260505234512 | 27 | 167 | 6.4 | 20.9 | 0.00 | 0.00 | 0.00 | 80 | 990.0 |
| 20260505234011 | 27 | 160 | 11.3 | 20.9 | 0.00 | 0.00 | 0.00 | 80 | 990.1 |
| 20260505233510 | 27 | 157 | 11.3 | 24.1 | 0.00 | 0.00 | 0.00 | 79 | 990.0 |
| 20260505232453 | 27 | 161 | 14.5 | 22.5 | 0.00 | 0.00 | 0.00 | 79 | 989.6 |
| 20260505231952 | 27 | 163 | 12.9 | 25.7 | 0.00 | 0.00 | 0.00 | 79 | 989.4 |
| 20260505231451 | 27 | 176 | 11.3 | 29.0 | 0.00 | 0.00 | 0.00 | 78 | 989.2 |
| 20260505230950 | 27 | 159 | 16.1 | 29.0 | 0.00 | 0.00 | 0.00 | 78 | 989.1 |
| 20260505225417 | 27 | 153 | 12.9 | 22.5 | 0.00 | 0.00 | 0.00 | 78 | 988.7 |
| 20260505224916 | 27 | 150 | 9.7 | 22.5 | 0.00 | 0.00 | 0.00 | 78 | 988.8 |
| 20260505224415 | 27 | 165 | 12.9 | 24.1 | 0.00 | 0.00 | 0.00 | 77 | 988.8 |
| 20260505223914 | 28 | 158 | 12.9 | 24.1 | 0.00 | 0.00 | 0.00 | 77 | 988.5 |
| 20260505223413 | 28 | 170 | 14.5 | 24.1 | 0.00 | 0.00 | 0.00 | 77 | 988.4 |
| 20260505222912 | 27 | 160 | 12.9 | 30.6 | 0.00 | 0.00 | 0.00 | 78 | 988.9 |
| 20260505222411 | 28 | 159 | 12.9 | 30.6 | 0.00 | 0.00 | 0.00 | 78 | 988.5 |
| 20260505221354 | 28 | 155 | 16.1 | 29.0 | 0.00 | 0.00 | 0.00 | 76 | 987.4 |
| 20260505220338 | 28 | 173 | 12.9 | 32.2 | 0.00 | 0.00 | 0.00 | 75 | 987.3 |
| 20260505214804 | 28 | 158 | 14.5 | 25.7 | 0.00 | 0.00 | 0.00 | 74 | 986.4 |
| 20260505214303 | 28 | 157 | 9.7 | 30.6 | 0.00 | 0.00 | 0.00 | 76 | 986.8 |
| 20260505213803 | 28 | 138 | 17.7 | 30.6 | 0.00 | 0.00 | 0.00 | 75 | 987.4 |
| 20260505213301 | 28 | 139 | 20.9 | 25.7 | 0.00 | 0.00 | 0.00 | 76 | 987.8 |
| 20260505212800 | 28 | 146 | 16.1 | 29.0 | 0.00 | 0.00 | 0.00 | 75 | 987.7 |
| 20260505212300 | 28 | 165 | 12.9 | 30.6 | 0.00 | 0.00 | 0.00 | 74 | 987.2 |
| 20260505211758 | 28 | 146 | 14.5 | 37.0 | 0.00 | 0.00 | 0.00 | 74 | 987.0 |
| 20260505211258 | 28 | 167 | 14.5 | 37.0 | 0.00 | 0.00 | 0.00 | 75 | 986.8 |
| 20260505205725 | 28 | 166 | 9.7 | 32.2 | 0.00 | 0.00 | 0.00 | 75 | 987.2 |
| 20260505205224 | 28 | 156 | 12.9 | 32.2 | 0.00 | 0.00 | 0.00 | 74 | 987.4 |
| 20260505204723 | 28 | 161 | 12.9 | 32.2 | 0.00 | 0.00 | 0.00 | 73 | 986.8 |
| 20260505204222 | 28 | 183 | 17.7 | 32.2 | 0.00 | 0.00 | 0.00 | 73 | 987.7 |
| 20260505203205 | 28 | 180 | 14.5 | 24.1 | 0.00 | 0.00 | 0.00 | 74 | 987.5 |
| 20260505202704 | 28 | 156 | 11.3 | 24.1 | 0.00 | 0.00 | 0.00 | 74 | 987.9 |
| 20260505202203 | 28 | 165 | 12.9 | 25.7 | 0.00 | 0.00 | 0.00 | 74 | 987.9 |
| 20260505201702 | 28 | 181 | 12.9 | 25.7 | 0.00 | 0.00 | 0.00 | 76 | 988.4 |
| 20260505201201 | 28 | 181 | 14.5 | 24.1 | 0.00 | 0.00 | 0.00 | 75 | 988.1 |
| 20260505195628 | 28 | 172 | 12.9 | 24.1 | 0.00 | 0.00 | 0.00 | 78 | 988.7 |
| 20260505195127 | 28 | 155 | 17.7 | 24.1 | 0.00 | 0.00 | 0.00 | 76 | 988.1 |
| 20260505194626 | 28 | 185 | 12.9 | 24.1 | 0.00 | 0.00 | 0.00 | 75 | 987.4 |
| 20260505193609 | 28 | 185 | 12.9 | 20.9 | 0.00 | 0.00 | 0.00 | 75 | 987.8 |
| 20260505193108 | 28 | 178 | 11.3 | 20.9 | 0.00 | 0.00 | 0.00 | 76 | 988.5 |
| 20260505192607 | 28 | 150 | 12.9 | 20.9 | 0.00 | 0.00 | 0.00 | 77 | 988.8 |
| 20260505192106 | 28 | 171 | 11.3 | 22.5 | 0.00 | 0.00 | 0.00 | 78 | 988.9 |
| 20260505191605 | 28 | 187 | 11.3 | 22.5 | 0.00 | 0.00 | 0.00 | 78 | 989.3 |
| 20260505191104 | 28 | 189 | 9.7 | 25.7 | 0.00 | 0.00 | 0.00 | 77 | 990.3 |
| 20260505190047 | 28 | 191 | 14.5 | 25.7 | 0.00 | 0.00 | 0.00 | 76 | 988.8 |
| 20260505185546 | 27 | 177 | 8.0 | 24.1 | 0.00 | 0.00 | 0.00 | 79 | 990.0 |
| 20260505185045 | 27 | 195 | 11.3 | 24.1 | 0.00 | 0.00 | 0.00 | 79 | 990.4 |
| 20260505184544 | 27 | 181 | 8.0 | 24.1 | 0.00 | 0.00 | 0.00 | 79 | 990.8 |
| 20260505184043 | 27 | 180 | 11.3 | 24.1 | 0.00 | 0.00 | 0.00 | 79 | 991.0 |
| 20260505183542 | 27 | 191 | 12.9 | 25.7 | 0.00 | 0.00 | 0.00 | 79 | 990.9 |
| 20260505183041 | 27 | 190 | 12.9 | 25.7 | 0.00 | 0.00 | 0.00 | 79 | 990.5 |
| 20260505182540 | 27 | 191 | 6.4 | 22.5 | 0.00 | 0.00 | 0.00 | 79 | 990.3 |
| 20260505182039 | 27 | 185 | 11.3 | 22.5 | 0.00 | 0.00 | 0.00 | 79 | 990.2 |
| 20260505181538 | 27 | 191 | 11.3 | 22.5 | 0.00 | 0.00 | 0.00 | 79 | 990.3 |
| 20260505180521 | 27 | 197 | 11.3 | 22.5 | 0.00 | 0.00 | 0.00 | 79 | 989.7 |
| 20260505180020 | 27 | 185 | 9.7 | 22.5 | 0.00 | 0.00 | 0.00 | 79 | 989.5 |
| 20260505175519 | 27 | 180 | 9.7 | 22.5 | 0.00 | 0.00 | 0.00 | 81 | 989.9 |
| 20260505175018 | 27 | 179 | 11.3 | 19.3 | 0.00 | 0.00 | 0.00 | 80 | 990.0 |
| 20260505174517 | 27 | 188 | 8.0 | 19.3 | 0.00 | 0.00 | 0.00 | 81 | 990.5 |
| 20260505173500 | 26 | 169 | 12.9 | 20.9 | 0.00 | 0.00 | 0.00 | 81 | 990.9 |
| 20260505172443 | 26 | 162 | 8.0 | 22.5 | 0.00 | 0.00 | 0.00 | 82 | 991.2 |
| 20260505171426 | 26 | 188 | 9.7 | 22.5 | 0.00 | 0.00 | 0.00 | 82 | 992.3 |
| 20260505170925 | 26 | 197 | 11.3 | 20.9 | 0.00 | 0.00 | 0.00 | 82 | 992.2 |
| 20260505170425 | 26 | 188 | 6.4 | 19.3 | 0.00 | 0.00 | 0.00 | 84 | 992.5 |
| 20260505165407 | 26 | 186 | 8.0 | 19.3 | 0.00 | 0.00 | 0.00 | 84 | 992.7 |
| 20260505164906 | 26 | 185 | 9.7 | 20.9 | 0.00 | 0.00 | 0.00 | 83 | 992.6 |
| 20260505164405 | 26 | 176 | 9.7 | 22.5 | 0.00 | 0.00 | 0.00 | 84 | 992.5 |
| 20260505163349 | 26 | 190 | 8.0 | 20.9 | 0.00 | 0.00 | 0.00 | 85 | 993.3 |
| 20260505162331 | 25 | 192 | 16.1 | 30.6 | 0.00 | 0.00 | 0.00 | 84 | 994.3 |
| 20260505161830 | 25 | 191 | 14.5 | 30.6 | 0.00 | 0.00 | 0.00 | 85 | 993.9 |
| 20260505161330 | 25 | 189 | 11.3 | 25.7 | 0.00 | 0.00 | 0.00 | 86 | 994.0 |
| 20260505160828 | 25 | 201 | 16.1 | 25.7 | 0.00 | 0.00 | 0.00 | 86 | 994.0 |
| 20260505160327 | 25 | 209 | 11.3 | 24.1 | 0.00 | 0.00 | 0.00 | 87 | 994.6 |
| 20260505152806 | 24 | 186 | 12.9 | 25.7 | 0.00 | 0.00 | 0.00 | 89 | 994.8 |
| 20260505152305 | 24 | 184 | 8.0 | 19.3 | 0.00 | 0.00 | 0.00 | 90 | 995.3 |
| 20260505151804 | 24 | 174 | 6.4 | 20.9 | 0.00 | 0.00 | 0.00 | 90 | 995.9 |
| 20260505151302 | 23 | 182 | 8.0 | 20.9 | 0.00 | 0.00 | 0.00 | 91 | 996.2 |
| 20260505150802 | 23 | 188 | 11.3 | 19.3 | 0.00 | 0.00 | 0.00 | 91 | 995.8 |
| 20260505150301 | 23 | 189 | 9.7 | 22.5 | 0.00 | 0.00 | 0.00 | 92 | 995.4 |
| 20260505140219 | 22 | 183 | 12.9 | 22.5 | 0.00 | 0.00 | 0.00 | 93 | 997.1 |
| 20260505130152 | 22 | 166 | 8.0 | 20.9 | 0.00 | 0.00 | 0.00 | 95 | 997.5 |
| 20260505124133 | 21 | 169 | 8.0 | 20.9 | 0.00 | 0.00 | 0.00 | 96 | 997.8 |
| 20260505123632 | 21 | 170 | 8.0 | 20.9 | 0.00 | 0.00 | 0.00 | 96 | 998.2 |
| 20260505121543 | 21 | 178 | 8.0 | 17.7 | 0.00 | 0.00 | 0.00 | 96 | 997.4 |
| 20260505121042 | 21 | 182 | 8.0 | 20.9 | 0.00 | 0.00 | 0.00 | 96 | 997.6 |
| 20260505120541 | 21 | 180 | 4.8 | 20.9 | 0.00 | 0.00 | 0.00 | 96 | 998.1 |
| 20260505120040 | 21 | 164 | 8.0 | 20.9 | 0.00 | 0.00 | 0.00 | 96 | 997.9 |
| 20260505115539 | 21 | 180 | 6.4 | 17.7 | 0.00 | 0.00 | 0.00 | 96 | 997.9 |
| 20260505114522 | 21 | 167 | 4.8 | 20.9 | 0.00 | 0.00 | 0.00 | 96 | 998.1 |
| 20260505113505 | 21 | 187 | 8.0 | 20.9 | 0.00 | 0.00 | 0.00 | 96 | 998.1 |
| 20260505113005 | 21 | 170 | 8.0 | 20.9 | 0.00 | 0.00 | 0.00 | 96 | 998.0 |
| 20260505112503 | 21 | 192 | 8.0 | 20.9 | 0.00 | 0.00 | 0.00 | 96 | 998.4 |
| 20260505112002 | 21 | 179 | 9.7 | 20.9 | 0.00 | 0.00 | 0.00 | 96 | 998.4 |
| 20260505111501 | 21 | 171 | 9.7 | 19.3 | 0.00 | 0.00 | 0.00 | 96 | 998.0 |
| 20260505111000 | 21 | 168 | 6.4 | 19.3 | 0.00 | 0.00 | 0.00 | 96 | 997.6 |
| 20260505101905 | 20 | 150 | 6.4 | 17.7 | 0.00 | 0.00 | 0.00 | 96 | 998.1 |
| 20260505101405 | 20 | 168 | 6.4 | 17.7 | 0.00 | 0.00 | 0.00 | 96 | 998.4 |
| 20260505100904 | 20 | 166 | 4.8 | 17.7 | 0.00 | 0.00 | 0.00 | 95 | 998.3 |
| 20260505100402 | 20 | 154 | 6.4 | 17.7 | 0.00 | 0.00 | 0.00 | 95 | 998.6 |
| 20260505095902 | 20 | 169 | 4.8 | 17.7 | 0.00 | 0.00 | 0.00 | 95 | 998.5 |
| 20260505094845 | 20 | 162 | 6.4 | 17.7 | 0.00 | 0.00 | 0.00 | 95 | 998.2 |
| 20260505094344 | 20 | 161 | 4.8 | 17.7 | 0.00 | 0.00 | 0.00 | 95 | 998.4 |
| 20260505093842 | 20 | 156 | 6.4 | 17.7 | 0.00 | 0.00 | 0.00 | 95 | 998.5 |
| 20260505093342 | 20 | 146 | 6.4 | 17.7 | 0.00 | 0.00 | 0.00 | 95 | 998.2 |
| 20260505092325 | 21 | 147 | 6.4 | 17.7 | 0.00 | 0.00 | 0.00 | 95 | 999.1 |
| 20260505090752 | 20 | 169 | 9.7 | 19.3 | 0.00 | 0.00 | 0.00 | 95 | 998.6 |
| 20260505090251 | 20 | 167 | 4.8 | 17.7 | 0.00 | 0.00 | 0.00 | 94 | 998.3 |
| 20260505085750 | 20 | 161 | 6.4 | 17.7 | 0.00 | 0.00 | 0.00 | 94 | 998.7 |
| 20260505085249 | 21 | 147 | 4.8 | 17.7 | 0.00 | 0.00 | 0.00 | 94 | 998.4 |
| 20260505084748 | 21 | 164 | 4.8 | 17.7 | 0.00 | 0.00 | 0.00 | 94 | 998.5 |
| 20260505084247 | 21 | 158 | 6.4 | 17.7 | 0.00 | 0.00 | 0.00 | 94 | 998.6 |
| 20260505083746 | 21 | 155 | 6.4 | 17.7 | 0.00 | 0.00 | 0.00 | 94 | 999.1 |
| 20260505083245 | 21 | 166 | 8.0 | 17.7 | 0.00 | 0.00 | 0.00 | 93 | 999.0 |
| 20260505082228 | 21 | 173 | 4.8 | 19.3 | 0.00 | 0.00 | 0.00 | 93 | 999.0 |
| 20260505081727 | 21 | 171 | 8.0 | 19.3 | 0.00 | 0.00 | 0.00 | 93 | 999.1 |
| 20260505081226 | 21 | 158 | 9.7 | 19.3 | 0.00 | 0.00 | 0.00 | 93 | 999.3 |
| 20260505080209 | 21 | 160 | 4.8 | 19.3 | 0.00 | 0.00 | 0.00 | 92 | 998.9 |
| 20260505075152 | 21 | 168 | 6.4 | 19.3 | 0.00 | 0.00 | 0.00 | 92 | 998.8 |
| 20260505074651 | 21 | 160 | 6.4 | 19.3 | 0.00 | 0.00 | 0.00 | 92 | 998.9 |
| 20260505074150 | 21 | 156 | 4.8 | 19.3 | 0.00 | 0.00 | 0.00 | 92 | 998.5 |
| 20260505073133 | 21 | 159 | 8.0 | 19.3 | 0.00 | 0.00 | 0.00 | 91 | 999.2 |
| 20260505072632 | 21 | 164 | 6.4 | 19.3 | 0.00 | 0.00 | 0.00 | 91 | 999.1 |
| 20260505071615 | 21 | 167 | 6.4 | 19.3 | 0.00 | 0.00 | 0.00 | 91 | 999.5 |
| 20260505071114 | 21 | 173 | 8.0 | 19.3 | 0.00 | 0.00 | 0.00 | 91 | 999.8 |
| 20260505070057 | 21 | 181 | 9.7 | 20.9 | 0.00 | 0.00 | 0.00 | 91 | 1000.2 |
| 20260505065556 | 21 | 168 | 8.0 | 20.9 | 0.00 | 0.00 | 0.00 | 90 | 999.8 |
| 20260505065055 | 21 | 159 | 9.7 | 19.3 | 0.00 | 0.00 | 0.00 | 90 | 999.8 |
| 20260505064554 | 21 | 168 | 8.0 | 19.3 | 0.00 | 0.00 | 0.00 | 90 | 1000.1 |
| 20260505064053 | 21 | 158 | 9.7 | 19.3 | 0.00 | 0.00 | 0.00 | 90 | 999.9 |
| 20260505063552 | 21 | 168 | 8.0 | 20.9 | 0.00 | 0.00 | 0.00 | 90 | 1000.4 |
| 20260505062535 | 21 | 156 | 8.0 | 20.9 | 0.00 | 0.00 | 0.00 | 90 | 999.6 |
| 20260505062034 | 21 | 157 | 8.0 | 20.9 | 0.00 | 0.00 | 0.00 | 89 | 1000.2 |
| 20260505061533 | 21 | 157 | 9.7 | 20.9 | 0.00 | 0.00 | 0.00 | 89 | 999.9 |
| 20260505061032 | 21 | 152 | 11.3 | 19.3 | 0.00 | 0.00 | 0.00 | 89 | 1000.1 |
| 20260505060531 | 21 | 158 | 8.0 | 19.3 | 0.00 | 0.00 | 0.00 | 89 | 1000.1 |
| 20260505060030 | 21 | 152 | 8.0 | 19.3 | 0.00 | 0.00 | 0.00 | 89 | 1000.1 |
| 20260505055013 | 21 | 147 | 6.4 | 19.3 | 0.00 | 0.00 | 0.00 | 89 | 1000.2 |
| 20260505054512 | 21 | 140 | 6.4 | 19.3 | 0.00 | 0.00 | 0.00 | 89 | 999.9 |
| 20260505054011 | 21 | 148 | 9.7 | 19.3 | 0.00 | 0.00 | 0.00 | 89 | 1000.3 |
| 20260505053510 | 21 | 147 | 8.0 | 19.3 | 0.00 | 0.00 | 0.00 | 88 | 1000.4 |
| 20260505053009 | 21 | 153 | 8.0 | 19.3 | 0.00 | 0.00 | 0.00 | 88 | 1000.3 |
| 20260505052508 | 21 | 153 | 6.4 | 19.3 | 0.00 | 0.00 | 0.00 | 88 | 1000.2 |
| 20260505052007 | 21 | 141 | 11.3 | 20.9 | 0.00 | 0.00 | 0.00 | 88 | 999.6 |
| 20260505050950 | 21 | 146 | 9.7 | 20.9 | 0.00 | 0.00 | 0.00 | 88 | 1000.1 |
| 20260505050449 | 21 | 150 | 9.7 | 20.9 | 0.00 | 0.00 | 0.00 | 88 | 1000.1 |
| 20260505041425 | 21 | 137 | 8.0 | 20.9 | 0.00 | 0.00 | 0.00 | 85 | 999.7 |
| 20260505040924 | 21 | 148 | 9.7 | 20.9 | 0.00 | 0.00 | 0.00 | 85 | 1000.1 |
| 20260505040423 | 21 | 150 | 9.7 | 20.9 | 0.00 | 0.00 | 0.00 | 84 | 999.9 |
| 20260505035922 | 21 | 150 | 9.7 | 20.9 | 0.00 | 0.00 | 0.00 | 84 | 1000.0 |
| 20260505035421 | 21 | 160 | 9.7 | 20.9 | 0.00 | 0.00 | 0.00 | 84 | 999.8 |
| 20260505034919 | 22 | 153 | 11.3 | 20.9 | 0.00 | 0.00 | 0.00 | 84 | 1000.1 |
| 20260505034419 | 22 | 157 | 11.3 | 20.9 | 0.00 | 0.00 | 0.00 | 83 | 999.4 |
| 20260505033918 | 22 | 151 | 11.3 | 22.5 | 0.00 | 0.00 | 0.00 | 83 | 999.6 |
| 20260505033416 | 22 | 159 | 11.3 | 25.7 | 0.00 | 0.00 | 0.00 | 82 | 999.3 |
| 20260505032400 | 22 | 160 | 11.3 | 19.3 | 0.00 | 0.00 | 0.00 | 82 | 998.9 |
| 20260505031859 | 22 | 151 | 11.3 | 19.3 | 0.00 | 0.00 | 0.00 | 81 | 998.9 |
| 20260505031358 | 22 | 158 | 8.0 | 19.3 | 0.00 | 0.00 | 0.00 | 81 | 999.0 |
| 20260505030857 | 22 | 152 | 11.3 | 22.5 | 0.00 | 0.00 | 0.00 | 81 | 998.6 |
| 20260505030356 | 22 | 151 | 11.3 | 22.5 | 0.00 | 0.00 | 0.00 | 81 | 998.2 |
| 20260505025855 | 22 | 159 | 11.3 | 20.9 | 0.00 | 0.00 | 0.00 | 81 | 998.3 |
| 20260505025354 | 22 | 154 | 11.3 | 20.9 | 0.00 | 0.00 | 0.00 | 81 | 998.3 |
| 20260505024853 | 22 | 155 | 11.3 | 20.9 | 0.00 | 0.00 | 0.00 | 81 | 998.8 |
| 20260505024352 | 22 | 158 | 9.7 | 22.5 | 0.00 | 0.00 | 0.00 | 81 | 998.4 |
| 20260505023851 | 22 | 155 | 9.7 | 22.5 | 0.00 | 0.00 | 0.00 | 80 | 997.6 |
| 20260505023350 | 22 | 157 | 8.0 | 19.3 | 0.00 | 0.00 | 0.00 | 81 | 998.3 |
| 20260505022333 | 22 | 155 | 8.0 | 19.3 | 0.00 | 0.00 | 0.00 | 80 | 997.9 |
| 20260505021832 | 23 | 155 | 8.0 | 19.3 | 0.00 | 0.00 | 0.00 | 79 | 998.1 |
| 20260505021331 | 23 | 154 | 11.3 | 19.3 | 0.00 | 0.00 | 0.00 | 79 | 997.9 |
| 20260505020830 | 23 | 153 | 8.0 | 19.3 | 0.00 | 0.00 | 0.00 | 79 | 997.8 |
| 20260505020329 | 23 | 152 | 9.7 | 19.3 | 0.00 | 0.00 | 0.00 | 78 | 997.6 |
| 20260505015828 | 23 | 158 | 11.3 | 19.3 | 0.00 | 0.00 | 0.00 | 78 | 998.1 |
| 20260505014255 | 23 | 155 | 11.3 | 19.3 | 0.00 | 0.00 | 0.00 | 77 | 997.6 |
| 20260505013754 | 23 | 155 | 11.3 | 19.3 | 0.00 | 0.00 | 0.00 | 77 | 997.6 |
| 20260505013253 | 23 | 151 | 6.4 | 19.3 | 0.00 | 0.00 | 0.00 | 77 | 997.3 |
| 20260505012752 | 23 | 162 | 9.7 | 19.3 | 0.00 | 0.00 | 0.00 | 76 | 997.3 |
| 20260505012251 | 23 | 157 | 9.7 | 19.3 | 0.00 | 0.00 | 0.00 | 76 | 997.3 |
| 20260505010718 | 24 | 162 | 11.3 | 24.1 | 0.00 | 0.00 | 0.00 | 74 | 997.1 |
| 20260505010217 | 24 | 161 | 11.3 | 24.1 | 0.00 | 0.00 | 0.00 | 74 | 996.6 |
| 20260505005716 | 24 | 150 | 11.3 | 24.1 | 0.00 | 0.00 | 0.00 | 74 | 996.4 |
| 20260505005215 | 24 | 151 | 9.7 | 25.7 | 0.00 | 0.00 | 0.00 | 73 | 996.3 |
| 20260505003642 | 25 | 155 | 11.3 | 22.5 | 0.00 | 0.00 | 0.00 | 72 | 995.9 |
| 20260505003141 | 25 | 154 | 12.9 | 22.5 | 0.00 | 0.00 | 0.00 | 72 | 995.8 |